[[{"header":{"parameterUnit":"m.s-1","parameterCategory":1,"la1":30.2991,"la2":30.254,"lo1":-89.0895,"lo2":-89.0444,"dy":0.0017,"dx":0.0017,"nx":28,"ny":28,"refTime":"2023-10-04T09:00:00:Z","depth":0,"parameterNumber":2,"parameterNumberName":"U-component_of_WINDS"},"data":[0,0,0,0,0,0,0,0,0,0,0,0,0,0,0,0,0,0,0,0,0,0,0,0,0,0,0,0,0,0,0,0,0,0,0,0,0,0,0,0,0,0,0,0,0,0,0,0,0,0,0,0,0,0,0,0,0,0,-1.7726,-1.7727,0,-1.7855,-1.7856,-1.7858,-1.7878,-1.7877,-1.7876,-1.7875,-1.8008,-1.8012,-1.8017,0,0,0,0,0,0,0,0,0,0,0,0,0,-1.7499,-1.7503,-1.7726,-1.7728,-1.7729,-1.7855,-1.7856,-1.7858,-1.7878,-1.7877,-1.7876,-1.7874,-1.8006,-1.8012,-1.8017,0,0,0,0,0,0,0,0,0,0,0,0,0,-1.761,-1.7505,-1.7726,-1.7754,-1.7758,-1.7854,-1.7856,-1.7859,-1.7879,-1.7877,-1.7875,-1.7874,-1.8005,-1.8011,-1.8018,-1.8095,0,0,-1.8039,-1.8042,0,0,0,0,0,0,0,0,-1.7604,-1.7618,-1.7749,-1.7753,-1.7757,-1.7849,-1.7825,-1.7938,-1.7879,-1.7833,-1.7875,-1.7873,-1.7956,-1.7967,-1.7995,-1.8101,-1.8107,-1.804,-1.8044,-1.8047,-1.8049,0,0,0,0,0,0,0,-1.7596,-1.7613,-1.7777,-1.775,-1.7756,-1.7761,-1.7775,-1.7847,-1.7903,-1.7837,-1.7839,-1.7854,-1.7958,-1.7988,-1.7998,-1.8109,-1.804,-1.8046,-1.805,-1.8053,-1.8285,-1.8287,0,0,0,0,0,0,-1.7583,-1.7606,-1.7773,-1.7781,-1.7675,-1.7767,-1.7782,-1.7821,-1.7902,-1.7913,-1.7855,-1.7854,-1.7977,-1.799,-1.8003,-1.8099,-1.8047,-1.8053,-1.8057,-1.8283,-1.8286,-1.8288,0,0,0,0,0,0,-1.7578,-1.7598,-1.7768,-1.7694,-1.7716,-1.7773,-1.7816,-1.7824,-1.7854,-1.7916,-1.7926,-1.7875,-1.7977,-1.7993,-1.8072,-1.8104,-1.8056,-1.8063,-1.8281,-1.8284,-1.8287,-1.829,0,0,0,0,0,0,-1.7571,-1.7596,-1.7625,-1.7695,-1.772,-1.7834,-1.7818,-1.7828,-1.7866,-1.7866,-1.7937,-1.7947,-1.7977,-1.8062,-1.8079,-1.8112,-1.8068,-1.8278,-1.8282,-1.8286,-1.8287,-1.8293,-1.8298,0,0,0,0,0,-1.7563,-1.7621,-1.7626,-1.7646,-1.7758,-1.7836,-1.785,-1.7882,-1.7869,-1.7899,-1.7938,-1.7945,-1.8097,-1.8069,-1.8089,-1.8125,-1.8276,-1.8281,-1.8286,-1.8285,-1.8292,-1.8297,0,0,0,0,0,0,-1.7554,-1.763,-1.7637,-1.7719,-1.7771,-1.7839,-1.7878,-1.7888,-1.7945,-1.7943,-1.798,-1.7996,-1.8073,-1.8107,-1.8075,-1.8204,-1.8186,-1.8195,-1.8179,-1.8186,-1.8191,-1.8181,-1.8074,0,0,0,0,0,-1.7561,-1.7617,-1.7682,-1.7748,-1.7773,-1.7821,-1.7856,-1.7876,-1.7931,-1.7953,-1.7999,-1.8052,-1.8112,-1.8151,-1.821,-1.8293,-1.8309,-1.8327,-1.8332,-1.8336,-1.8343,-1.839,-1.8399,-1.8303,-1.8303,-1.8303,0,0,-1.7577,-1.7626,-1.7659,-1.7747,-1.7789,-1.7847,-1.7839,-1.7901,-1.7944,-1.7963,-1.804,-1.8075,-1.8138,-1.8219,-1.8257,-1.8249,-1.8373,-1.8342,-1.8345,-1.835,-1.8396,-1.8405,-1.8413,-1.8306,-1.8306,-1.8305,0,0,-1.7635,-1.7678,-1.7737,-1.778,-1.7844,-1.7876,-1.789,-1.7957,-1.7981,-1.8059,-1.8074,-1.8127,-1.823,-1.8274,-1.8309,-1.8386,-1.8394,-1.8404,-1.843,-1.8476,-1.8483,-1.849,-1.8517,-1.8527,-1.8411,-1.8411,-1.8411,0,-1.7647,-1.7734,-1.7767,-1.7828,-1.7867,-1.7886,-1.7947,-1.7987,-1.8068,-1.8094,-1.8085,-1.8214,-1.8257,-1.8349,-1.8368,-1.8396,-1.8414,-1.8395,-1.8479,-1.8487,-1.8493,-1.852,-1.853,-1.8411,-1.8411,-1.8411,-1.8411,0,-1.7746,-1.7806,-1.7847,-1.7923,-1.7967,-1.8027,-1.807,-1.811,-1.8127,-1.816,-1.8239,-1.8292,-1.8362,-1.8386,-1.8403,-1.8481,-1.8474,-1.8471,-1.8454,-1.8503,-1.8528,-1.8539,-1.8412,-1.8412,-1.8412,-1.8412,0,0,-1.7801,-1.7895,-1.791,-1.7945,-1.8017,-1.8065,-1.8127,-1.8195,-1.8229,-1.8284,-1.8337,-1.8424,-1.8423,-1.8463,-1.8486,-1.8526,-1.8583,-1.8518,-1.8521,-1.8528,-1.8672,-1.8673,-1.8685,-1.8589,-1.8591,-1.8593,-1.8667,0,-1.7868,-1.7979,-1.801,-1.8104,-1.8161,-1.818,-1.8235,-1.8285,-1.8318,-1.8371,-1.8408,-1.8469,-1.8462,-1.8487,-1.8527,-1.8567,-1.8612,-1.8562,-1.864,-1.8642,-1.8623,-1.8698,-1.8699,-1.8767,-1.8677,-1.8679,-1.868,0,-1.7961,-1.8017,-1.8116,-1.8182,-1.8207,-1.8255,-1.832,-1.8371,-1.8429,-1.845,-1.8496,-1.8515,-1.8581,-1.8561,-1.8653,-1.8618,-1.8652,-1.8677,-1.868,-1.8688,-1.8664,-1.8708,-1.8789,-1.8799,-1.8696,-1.8695,-1.8694,0,-1.7991,-1.8092,-1.8164,-1.8194,-1.8272,-1.8306,-1.834,-1.8397,-1.8436,-1.8493,-1.8519,-1.8584,-1.8619,-1.8669,-1.8705,-1.8686,-1.8795,-1.8777,-1.8814,-1.8813,-1.8836,-1.8834,-1.8923,-1.8858,-1.8858,-1.8857,-1.8857,0,-1.8063,-1.8123,-1.8179,-1.8224,-1.8292,-1.8328,-1.8395,-1.843,-1.848,-1.8533,-1.8554,-1.8603,-1.8648,-1.8703,-1.8732,-1.8804,-1.882,-1.8839,-1.8846,-1.8837,-1.8835,-1.886,-1.8856,-1.886,-1.886,-1.8859,-1.8858,0,-1.8108,-1.8148,-1.8229,-1.8296,-1.8315,-1.8362,-1.842,-1.8465,-1.8498,-1.8564,-1.8582,-1.8635,-1.8701,-1.8742,-1.8826,-1.8846,-1.8925,-1.893,-1.8905,-1.8908,-1.8944,-1.894,-1.9052,-1.9069,-1.8992,-1.8993,-1.8993,0,-1.8151,-1.8198,-1.827,-1.8306,-1.8341,-1.8399,-1.8439,-1.8477,-1.8518,-1.8588,-1.8624,-1.8691,-1.8747,-1.8852,-1.8898,-1.8963,-1.897,-1.9005,-1.898,-1.897,-1.8971,-1.8967,-1.8972,-1.9009,-1.9009,-1.901,-1.901,0,-1.8223,-1.8241,-1.8297,-1.8361,-1.8407,-1.846,-1.8512,-1.854,-1.8587,-1.8632,-1.87,-1.8743,-1.8829,-1.8895,-1.8964,-1.9,-1.9014,-1.9018,-1.903,-1.9021,-1.9005,-1.9014,-1.8916,-1.9015,-1.9015,-1.9014,-1.9014,-1.9014,-1.8269,-1.8311,-1.8369,-1.8431,-1.8474,-1.8522,-1.8567,-1.8607,-1.8663,-1.8735,-1.8755,-1.8825,-1.8883,-1.8977,-1.9015,-1.9071,-1.9066,-1.9084,-1.9088,-1.9092,-1.9093,-1.8996,-1.9084,-1.9084,-1.9084,-1.9084,-1.9084,0,-1.8342,-1.838,-1.8437,-1.8509,-1.8558,-1.8566,-1.8624,-1.8665,-1.8726,-1.8779,-1.8833,-1.8911,-1.8976,-1.9028,-1.9095,-1.913,-1.9138,-1.9146,-1.9144,-1.9152,-1.9093,-1.9076,-1.9139,-1.9139,-1.9139,-1.9139,-1.9139,-1.9139,-1.8386,-1.8458,-1.8483,-1.8577,-1.8615,-1.8683,-1.8716,-1.8761,-1.8803,-1.8889,-1.8943,-1.8976,-1.9028,-1.9099,-1.916,-1.9173,-1.9197,-1.9204,-1.9219,-1.9163,-1.9157,-1.9151,-1.9135,-1.9209,-1.9209,-1.9274,-1.9274,-1.9275]},{"header":{"parameterUnit":"m.s-1","parameterCategory":1,"la1":30.2991,"la2":30.254,"lo1":-89.0895,"lo2":-89.0444,"dy":0.0017,"dx":0.0017,"nx":28,"ny":28,"refTime":"2023-10-04T09:00:00:Z","depth":0,"parameterNumber":3,"parameterNumberName":"V-component_of_WINDS"},"data":[0,0,0,0,0,0,0,0,0,0,0,0,0,0,0,0,0,0,0,0,0,0,0,0,0,0,0,0,0,0,0,0,0,0,0,0,0,0,0,0,0,0,0,0,0,0,0,0,0,0,0,0,0,0,0,0,0,0,2.598,2.598,0,2.6008,2.6009,2.6009,2.5941,2.5939,2.5937,2.5935,2.5961,2.5964,2.5967,0,0,0,0,0,0,0,0,0,0,0,0,0,2.5865,2.5867,2.598,2.598,2.5981,2.6008,2.6009,2.6009,2.5942,2.5939,2.5936,2.5934,2.5961,2.5964,2.5967,0,0,0,0,0,0,0,0,0,0,0,0,0,2.5906,2.5868,2.598,2.595,2.5948,2.6008,2.6009,2.6009,2.5942,2.5939,2.5936,2.5933,2.5959,2.5963,2.5967,2.6056,0,0,2.598,2.5981,0,0,0,0,0,0,0,0,2.5904,2.591,2.5954,2.5953,2.595,2.5968,2.5977,2.6025,2.5943,2.5944,2.5935,2.5931,2.5966,2.5969,2.5982,2.6058,2.6059,2.598,2.5983,2.5984,2.5985,0,0,0,0,0,0,0,2.5901,2.5909,2.5991,2.5955,2.5953,2.5935,2.5937,2.5986,2.5973,2.5944,2.5939,2.5944,2.5964,2.5978,2.5982,2.6059,2.598,2.5984,2.5986,2.5988,2.6208,2.6211,0,0,0,0,0,0,2.5902,2.5907,2.599,2.5992,2.5919,2.5939,2.5942,2.5965,2.5972,2.597,2.5946,2.594,2.5972,2.5977,2.5982,2.6085,2.5984,2.5988,2.599,2.6204,2.6208,2.6212,0,0,0,0,0,0,2.59,2.591,2.5989,2.5948,2.5957,2.5945,2.5972,2.5968,2.5981,2.5974,2.5971,2.5963,2.597,2.5977,2.6038,2.6085,2.599,2.5994,2.62,2.6206,2.621,2.6293,0,0,0,0,0,0,2.5897,2.591,2.5944,2.5949,2.5959,2.6046,2.5975,2.5971,2.5989,2.5981,2.5989,2.5987,2.5968,2.6033,2.6042,2.6089,2.5997,2.6196,2.6203,2.6209,2.6286,2.6301,2.6313,0,0,0,0,0,2.5893,2.5967,2.5947,2.5957,2.6002,2.6048,2.6054,2.6032,2.5993,2.6027,2.6022,2.5986,2.6079,2.6039,2.605,2.6099,2.6193,2.6201,2.6208,2.628,2.6298,2.6313,0,0,0,0,0,0,2.5967,2.5967,2.5944,2.6022,2.6036,2.6037,2.6079,2.6051,2.6076,2.6068,2.6039,2.6041,2.6107,2.6109,2.6065,2.6184,2.6129,2.6139,2.618,2.6197,2.621,2.6207,2.6,0,0,0,0,0,2.5992,2.6031,2.6028,2.6097,2.6105,2.6091,2.611,2.6092,2.6105,2.611,2.611,2.6123,2.6154,2.6176,2.6205,2.6287,2.6286,2.6325,2.6339,2.635,2.6358,2.6399,2.6416,2.6237,2.6237,2.6237,0,0,2.6045,2.605,2.6076,2.6112,2.612,2.6159,2.6096,2.6141,2.6169,2.6117,2.6174,2.6175,2.6187,2.6259,2.629,2.6262,2.6408,2.6359,2.6368,2.6371,2.6409,2.6426,2.6441,2.6243,2.6242,2.6241,0,0,2.616,2.6169,2.6226,2.6236,2.625,2.624,2.6254,2.6259,2.6257,2.6315,2.6276,2.6309,2.6365,2.6375,2.6387,2.6506,2.6474,2.6517,2.6586,2.6626,2.664,2.6653,2.6693,2.6708,2.6526,2.6526,2.6526,0,2.6224,2.6282,2.6258,2.6305,2.6322,2.6277,2.6333,2.6344,2.6367,2.6378,2.6347,2.6415,2.6421,2.6493,2.6522,2.6534,2.6548,2.6515,2.664,2.6652,2.6664,2.6702,2.6717,2.6531,2.653,2.653,2.6529,0,2.6358,2.6399,2.6444,2.6467,2.6488,2.654,2.6523,2.6547,2.6527,2.652,2.6579,2.6584,2.6612,2.6628,2.6609,2.6698,2.668,2.6646,2.6589,2.6686,2.6721,2.6736,2.6538,2.6536,2.6534,2.6533,0,0,2.652,2.6529,2.6546,2.6555,2.6567,2.6598,2.6647,2.6675,2.6696,2.6713,2.6752,2.68,2.6768,2.6782,2.6764,2.68,2.6891,2.676,2.676,2.6783,2.6987,2.7012,2.7029,2.6871,2.6874,2.6876,2.6985,0,2.6633,2.6717,2.6697,2.678,2.6817,2.6775,2.6817,2.6828,2.6823,2.6853,2.6847,2.6881,2.6837,2.6845,2.6879,2.6873,2.6932,2.6865,2.6905,2.6907,2.6902,2.7048,2.7074,2.7177,2.6999,2.7001,2.7003,0,2.6775,2.6798,2.6885,2.6889,2.6904,2.6943,2.6966,2.6996,2.7007,2.7001,2.7017,2.6991,2.7038,2.6983,2.7046,2.7001,2.7017,2.7017,2.702,2.7021,2.696,2.7051,2.721,2.7225,2.7025,2.7023,2.7022,0,2.6882,2.6934,2.6993,2.7002,2.701,2.7037,2.7042,2.705,2.7068,2.7089,2.71,2.7126,2.7139,2.716,2.7141,2.7103,2.7207,2.715,2.7201,2.7202,2.7224,2.7222,2.7385,2.7237,2.7237,2.7237,2.7236,0,2.7009,2.7063,2.7041,2.7076,2.7136,2.7112,2.7171,2.717,2.7178,2.7211,2.7177,2.7209,2.7184,2.7214,2.72,2.7253,2.726,2.7255,2.7251,2.7257,2.7258,2.7266,2.7257,2.7241,2.724,2.7239,2.7238,0,2.7137,2.7125,2.7185,2.7188,2.7189,2.7233,2.7234,2.7266,2.7259,2.7302,2.7311,2.7299,2.7332,2.7316,2.7351,2.7341,2.741,2.7397,2.7406,2.7402,2.7453,2.7448,2.7625,2.7647,2.7487,2.7488,2.749,0,2.7218,2.7259,2.7266,2.7286,2.7293,2.7326,2.7344,2.7322,2.7342,2.7358,2.7388,2.7419,2.7442,2.7497,2.749,2.7516,2.7502,2.7563,2.7506,2.7511,2.7501,2.7498,2.7501,2.7573,2.7575,2.7577,2.7578,0,2.7362,2.7354,2.7382,2.7407,2.743,2.7449,2.7465,2.7483,2.7461,2.7486,2.7519,2.7537,2.7573,2.7603,2.7625,2.7628,2.7599,2.7596,2.7609,2.7616,2.7619,2.7616,2.7435,2.7592,2.7591,2.7589,2.7589,2.7588,2.7468,2.7502,2.7512,2.7543,2.7553,2.7568,2.7598,2.7595,2.7623,2.765,2.7635,2.7674,2.7683,2.7711,2.7718,2.7747,2.7723,2.7742,2.7747,2.7751,2.7757,2.7616,2.7752,2.7751,2.7751,2.775,2.775,0,2.7609,2.7613,2.7643,2.7666,2.769,2.7662,2.7678,2.77,2.7735,2.7746,2.7769,2.7808,2.7836,2.7833,2.7859,2.7883,2.787,2.789,2.7887,2.7888,2.7778,2.7764,2.79,2.79,2.79,2.79,2.79,2.79,2.7685,2.774,2.7733,2.7791,2.7795,2.7833,2.7844,2.7858,2.7866,2.7911,2.7935,2.7932,2.7937,2.7963,2.7988,2.7986,2.7996,2.8021,2.8014,2.7911,2.7896,2.7882,2.7868,2.8024,2.8024,2.8121,2.8122,2.8123]}]]